Content
SEND FEEDBACK

Spain Flag

MÁLAGA, SPAIN


Home > Europe > Spain
Elevation: 23 feet     Latitude: 36 40N     Longitude: 004 29W

WEATHER
 
SELECT A DAY
Number of Records: 361,752;   Date Range: 7/1/96 - 3/22/16
 
SHARE

PRINT THIS DATA

[ ← Previous Day ]
WEATHER ALMANAC - OCTOBER 28, 2013
[ Next Day → ]
[ °C ]   °F
Weather ElementAverageHighLow
Temperature67.4 °F77 °F (8:30 pm)57.2 °F (6:00 am)
Dewpoint58.1 °F62 °F (1:00 pm)51.8 °F (9:30 pm)
Humidity73.9 %94 % (1:30 am)44 % (8:30 pm)
Barometer30.07 in30.18 in (12:30 am)30.01 in (3:00 pm)
Wind Speed6.4 mph10.4 mph (11:30 pm)
Wind Gust15 mph (6:00 pm)
Weather ElementAverage
Visibility10.3 mi
Wind DirectionSSW (215.8 °)

Weather ElementTotal
Precipitation---
Cooling Degree Days2.1 (Base 65)
Growing Degree Days17.1 (Base 50)
Averaged from 50 records on October 28, 2013
WEATHER CONDITIONS BREAKOUT
WIND DIRECTION BREAKOUT
WEATHER BY HOUR - OCTOBER 28, 2013
[ °C ]   °F
Local TimeTemperatureDewpointHumidityBarometerVisibilityWind DirectionWind SpeedGust SpeedPrecipitationEventsConditions
12:30 AM62.6 °F59.0 °F88 %30.18 inNW (310°)3.5 mphClear
1:00 AM62.6 °F59.0 °F88 %30.15 inWNW (290°)8.1 mphClear
1:30 AM60.8 °F59.0 °F94 %30.15 inWNW (290°)6.9 mphClear
2:00 AM62.6 °F59.0 °F88 %30.15 inWNW (290°)9.2 mphClear
2:30 AM60.8 °F59.0 °F94 %30.15 inWNW (290°)9.2 mphClear
3:00 AM60.8 °F57.2 °F88 %30.12 inWNW (300°)8.1 mphClear
3:30 AM60.8 °F59.0 °F94 %30.12 inWNW (290°)8.1 mphClear
4:00 AM60.8 °F57.2 °F88 %30.12 inWNW (300°)9.2 mphClear
4:30 AM60.8 °F57.2 °F88 %30.12 inWNW (290°)9.2 mphClear
5:00 AM59.0 °F57.2 °F94 %30.09 inWNW (290°)9.2 mphClear
5:30 AM59.0 °F57.2 °F94 %30.09 inWNW (300°)6.9 mphClear
6:00 AM57.2 °F55.4 °F94 %30.09 inWNW (300°)5.8 mphClear
6:30 AM57.2 °F55.4 °F94 %30.09 inWNW (300°)9.2 mphClear
7:00 AM59.0 °F56.0 °F88 %30.11 in7.0 miWNW (290°)9.2 mph
7:00 AM59.0 °F55.4 °F88 %30.09 inWNW (290°)9.2 mphClear
7:30 AM57.2 °F55.4 °F94 %30.09 inWNW (300°)8.1 mphClear
8:00 AM57.2 °F55.4 °F94 %30.09 inWNW (290°)8.1 mphClear
8:30 AM59.0 °F55.4 °F88 %30.09 inWNW (290°)9.2 mphClear
9:00 AM59.0 °F57.2 °F94 %30.09 inWNW (290°)8.1 mphClear
9:30 AM60.8 °F57.2 °F88 %30.12 inWNW (300°)6.9 mphClear
10:00 AM64.4 °F59.0 °F83 %30.12 inWNW (290°)4.6 mphClear
10:30 AM68.0 °F59.0 °F73 %30.09 inVariable1.2 mphClear
11:00 AM71.6 °F59.0 °F64 %30.09 inCalmClear
11:30 AM71.6 °F60.8 °F69 %30.09 inVariable1.2 mphClear
12:00 PM71.6 °F60.8 °F69 %30.09 inSSE (160°)6.9 mphClear
12:30 PM71.6 °F60.8 °F69 %30.09 inSSE (150°)8.1 mphClear
1:00 PM76.0 °F62.0 °F54 %30.07 in12.0 miSE (130°)8.1 mphClear
1:00 PM73.4 °F60.8 °F65 %30.06 inSE (130°)6.9 mphClear
1:30 PM73.4 °F60.8 °F65 %30.04 inSE (140°)8.1 mphClear
2:00 PM73.4 °F60.8 °F65 %30.04 inSE (140°)8.1 mphClear
2:30 PM73.4 °F60.8 °F65 %30.04 inSE (130°)6.9 mphClear
3:00 PM73.4 °F60.8 °F65 %30.01 inSSE (150°)6.9 mphClear
3:30 PM73.4 °F60.8 °F65 %30.01 inSE (140°)5.8 mphClear
4:00 PM73.4 °F60.8 °F65 %30.01 inSSE (160°)8.1 mphClear
4:30 PM73.4 °F60.8 °F65 %30.01 inSSE (160°)6.9 mphClear
5:00 PM75.2 °F59.0 °F57 %30.01 inESE (110°)1.2 mphClear
5:30 PM73.4 °F60.8 °F65 %30.01 inNorth (10°)3.5 mphClear
6:00 PM71.6 °F60.8 °F69 %30.01 inNNW (340°)2.3 mph15.0 mphClear
6:30 PM71.6 °F60.8 °F69 %30.01 inNorth (360°)1.2 mphClear
7:00 PM70.0 °F61.0 °F66 %30.02 in12.0 miESE (120°)2.3 mphMostly Cloudy
7:00 PM68.0 °F60.8 °F78 %30.01 inSE (130°)2.3 mphClear
7:30 PM68.0 °F60.8 °F78 %30.01 inCalmClear
8:00 PM69.8 °F60.8 °F73 %30.01 inCalmClear
8:30 PM77.0 °F53.6 °F44 %30.01 inWest (280°)8.1 mphClear
9:00 PM75.2 °F53.6 °F47 %30.01 inWest (280°)3.5 mphClear
9:30 PM75.2 °F51.8 °F44 %30.01 inWest (280°)8.1 mphClear
10:00 PM73.4 °F53.6 °F50 %30.01 inWNW (290°)8.1 mphClear
10:30 PM75.2 °F51.8 °F44 %30.01 inWest (270°)9.2 mphClear
11:00 PM75.2 °F51.8 °F44 %30.01 inWest (270°)9.2 mphClear
11:30 PM73.4 °F51.8 °F47 %30.01 inWest (280°)10.4 mphClear
Hourly data recorded from LEMG, located miles away from Málaga, Spain




STORIES FROM OUR PARTNERS